COSMOS 1275 DEB, 42155

Orbit data source: Space-Track

COSMOS 1275 DEB, 42155 is space debris in LEO originally from a launch on Thu, 04 Jun 1981 UTC launched from the Plesetsk Missile And Space Complex (PKMTR). Debris objects in space refer to the collection of defunct objects orbiting the Earth. Examples of debris include non-operational satellites, rocket bodies, and fragments generated from explosions, collisions, or faulty payload assembly.

Loading next visibility...
Identifier
42155, 1981-053RT
Orbit
LEO
Country
Flag of CISCIS
Related business
Manufacturer
Unknown
Mission
Spacecraft
Bus & Motor
Unknown
Mass
Unknown
Launch date (UTC)
1981-06-04 (45 years ago)
Launch vehicle
Unknown
Launch site
Plesetsk Missile And Space Complex (PKMTR)
Object type
Payload
Rocket body
Debris
Shape & HBR
Unknown shape, 0.1 m
Radar Cross Section
Small (<0.1 m²)

Expand to show TLE details & history
Last TLE update: 3 days ago

TLE from 3 days ago
0 COSMOS 1275 DEB
1 42155U 81053RT  26142.06166058  .00001849  00000-0  95460-3 0  9990
2 42155  82.9070 267.0438 0043470 202.8573 157.0672 14.14108919640994
Epoch: 2026-05-22T01:28Z
TLE epoch observation values (Epoch: 2026-05-22T01:28:47.474Z)
Latitude
0.00005°
Longitude
5.14808°
Altitude
877.244 km
Speed
7.399 km/s
True Right ascension
17h 48m 10s
True Declination
0° 00' 00"
Sunlit
Object was in full shadow at epoch
Visualization orbit readout
Latitude
Unknown
Longitude
Unknown
Altitude
Unknown
Speed
Unknown
Apparent Right ascension
Unknown
Apparent Declination
Unknown
Sunlit
N/A
Visualization observer readout
Local Sidereal Time
17:46:52
Azimuth
Unknown
Elevation
Unknown
Doppler factor
Unknown
Orbital elements
Apogee altitude
873.829 km
Perigee altitude
811.053 km
Semi-major axis
7,220.578 km
Eccentricity
0.00435
Inclination
82.907°
RAAN
267.0438°
Arg. of periapsis
202.8573°
True anomaly
157.26033°
Mean anomaly
157.0672°
Eccentric anomaly
157.16386°
Mean motion
3.53741 °/min
Orbital period
101.77 mins
BSTAR
0.0009546
Loading maneuver chart data...
Computing Atmospheric mass density...
Loading historical data...
Loading historical data...
Loading historical data...
Loading historical data...
Loading historical data...
Loading historical data...
Loading historical data...

Documentation

Showing up to 5 results
|